Regional Weather Roundup
Issued by NWS Charleston, SC

Current Version | Previous Version | Text Only | Print | Product List | Glossary On
Versions: 1 2 3 4 5 6 7 8 9 10 11 12 13 14 15 16 17 18 19 20 21 22 23 24 25 26 27 28 29 30 31 32 33 34 35 36 37 38 39 40 41 42 43 44 45 46 47 48 49 50
000 ASUS42 KCHS 011810 RWRCHS REGIONAL WEATHER ROUNDUP NATIONAL WEATHER SERVICE CHARLESTON SC 200 PM EDT MON SEP 01 2014 NOTE: "FAIR" INDICATES FEW OR NO CLOUDS BELOW 12,000 FEET WITH NO SIGNIFICANT WEATHER AND/OR OBSTRUCTIONS TO VISIBILITY. NOT ALL STATIONS ARE QUALITY CONTROLLED BY THE NATIONAL WEATHER SERVICE. USE DATA WITH CAUTION...ESPECIALLY DEWPOINT OBSERVATIONS. SCZ027-030-031-034>040-042>050-011900- ...SOUTH CAROLINA... CITY SKY/WX TMP DP RH WIND PRES REMARKS N CHARLESTON PTSUNNY 91 73 55 SE7 30.09F HX 99 6HR MIN TEMP: 80; 6HR MAX TEMP: 95; 6HR PCP: 0.01; WATERFRONT PRK N/A 84 N/A N/A S10 N/A FORT JOHNSON NOT AVBL MOUNT PLEASANT MOCLDY 88 79 74 S8 30.10S HX 102 JOHNS ISLAND CLEAR 90 77 66 S8 30.11S HX 102 PINOPOLIS N/A 91 73 55 CALM 30.04F HX 100 MONCKS CORNER NOT AVBL SUMMERVILLE FAIR 91 73 55 CALM 30.11S HX 100 BEAUFORT MCAS PTSUNNY 94 71 47 VRB3 30.09F HX 101 6HR MIN TEMP: 78; 6HR MAX TEMP: 94; BEAUFORT ARPT FAIR 90 75 62 S5 30.09F HX 100 HILTON HEAD IS MOSUNNY 88 75 66 SE6 30.12F HX 97 GEORGETOWN NOT AVBL WALTERBORO PTCLDY 95 64 36 NE6 30.09F HX 97 ORANGEBURG PTSUNNY 92 71 50 E7 30.09F HX 98 6HR MIN TEMP: 75; 6HR MAX TEMP: 95; BARNWELL FAIR 93 73 52 E3 30.10F HX 102 AIKEN FAIR 93 72 49 CALM 30.12F HX 100 MANNING FAIR 93 77 59 SE6 30.08F HX 107 KINGSTREE NOT AVBL COLUMBIA MOSUNNY 95 70 44 VRB5 30.07F HX 101 6HR MIN TEMP: 75; 6HR MAX TEMP: 95; SUMTER PTSUNNY 93 70 46 VRB3 30.07F HX 99 6HR MIN TEMP: 75; 6HR MAX TEMP: 94; FLORENCE SUNNY 95 67 39 VRB3 30.07F HX 99 6HR MIN TEMP: 77; 6HR MAX TEMP: 96; MYRTLE BEACH MOSUNNY 90 75 62 S10 30.10S HX 100 N MYRTLE BEACH SUNNY 87 77 72 S13 30.09F HX 99 6HR MIN TEMP: 79; 6HR MAX TEMP: 87; $$ GAZ063-065-086>088-099>101-113>116-118-119-134-136>141-150-011900- ...GEORGIA... CITY SKY/WX TMP DP RH WIND PRES REMARKS SAVANNAH ARPT PTSUNNY 91 72 53 CALM 30.10F HX 98 6HR MIN TEMP: 76; 6HR MAX TEMP: 93; HUNTER AAF PTSUNNY 88 76 65 SE7 30.08F HX 99 6HR MIN TEMP: 75; 6HR MAX TEMP: 91; FORT STEWART PTSUNNY 91 73 54 VRB1 30.08F HX 99 6HR MIN TEMP: 72; 6HR MAX TEMP: 93; STATESBORO NOT AVBL SYLVANIA PTCLDY 86 71 59 S5 30.10F HX 91 CLAXTON NOT AVBL THOMSON MOSUNNY 94 72 48 CALM 30.14S HX 102 AUGUSTA-BUSH MOSUNNY 94 71 47 VRB3 30.08F HX 101 6HR MIN TEMP: 73; 6HR MAX TEMP: 95; AUGUSTA-DANIEL SUNNY 96 67 38 S7 30.10F HX 100 SWAINSBORO FAIR 97 72 44 S3 30.09F HX 105 VIDALIA N/A 93 73 52 CALM 30.10F HX 102 ALMA MOSUNNY 87 74 64 S5 30.10F HX 95 6HR MIN TEMP: 74; 6HR MAX TEMP: 93; WAYCROSS MOSUNNY 95 76 53 CALM 30.09F HX 108 JESUP N/A 97 75 49 NE3 30.10F HX 109 BRUNSWICK PTSUNNY 95 70 43 S5 30.10F HX 101 SAINT SIMONS SUNNY 89 75 63 SE8 30.11F HX 99 6HR MIN TEMP: 77; 6HR MAX TEMP: 89; $$ SCZ027-028-034-036>038-045-046-048>050-GAZ119-141-011900- ...LAKE AND SUPPLEMENTAL COASTAL OBSERVATIONS... STATION/POSITION TIME TEMP WIND PRES WAVE SWELL AIR SEA DIR/SP/G HT/PER HT/PER/DIR (UTC) (F) (DEG/KT/KT) (MB) (FT/S) (FT/S/D) UPR LAKE MARION NOT AVBL WINYAH BAY 1700 85 150/ 6 1019.0S LAKE MURRAY 1700 89 180/ 5/ 5 1018.3F ACE BASIN NERRS 1700 89 170/ 1 1020.0S FORT PULASKI 1800 85 140/ 6/ 8 1019.8S SAPELO ISLAND 1700 92 140/ 5 1021.0S $$ ANZ835-935-AMZ111-154-330-350-352-354-374-450-454-472-011900- ...C-MAN AND BUOY OBSERVATIONS... STATION/POSITION TIME TEMP WIND PRES WAVE SWELL AIR SEA DIR/SP/G HT/PER HT/PER/DIR (UTC) (F) (DEG/KT/KT) (MB) (FT/S) (FT/S/D) FOLLY BEACH CMAN 1700 85 170/ 5/ 6 1020.2S BUOY 41004 1800 84 86 150/ 4/ 6 1019.1F 2/ 8 2/ 8 BUOY 41008 1800 84 87 140/ 2/ 6 1019.7F 2/ 9 2/110/ 9 5E ST. MARYS GA 1800 86 N/A 2/ 8 FRYING PAN BUOY NOT AVBL BUOY 41025 1800 82 200/ 12/ 14 1018.9F 3/10 2/ 90/10 CAPE LOOKOUT NC 1700 83 190/ 8/ 11 1019.2F BUOY 41002 1716 82 85 200/ 6/ 8 1021.1 3/ 8 3/140/ 8 BUOY 41010 1800 83 85 90/ 4/ 6 1020.3F 2/ 9 2/ 60/ 9 BUOY 41012 NOT AVBL ST AUGUSTINE FL 1800 83 120/ 9/ 10 1020.5F CAPERS NEARSHORE 1700 86 170/ 6/ 6 N/A FRIPP NEARSHORE NOT AVBL $$

USA.gov is the U.S. government's official web portal to all federal, state and local government web resources and services.